Weather History for George, South Africa

Change the Weather History Date:

Wednesday, January 30, 2013

  Actual Average Record
Temperature  
Mean Temperature 71 °F -  
Max Temperature 76 °F 74 °F 76 °F (2014)
Min Temperature 66 °F 59 °F 65 °F (2014)
Cooling Degree Days 6    
Growing Degree Days 21 (Base 50)    
Moisture  
Dew Point 66 °F    
Average Humidity 87    
Maximum Humidity 100    
Minimum Humidity 73    
Precipitation  
Precipitation 0.08 in - - ()
Sea Level Pressure  
Sea Level Pressure 29.94 in    
Wind  
Wind Speed 8 mph ()    
Max Wind Speed 17 mph    
Max Gust Speed -    
Visibility 5.5 miles    
Events Rain    
Averages and records for this station are not official NWS values.
T = Trace of Precipitation, MM = Missing Value Source: Averaged Metar Reports

Daily Weather History Graph

Daily Weather History Graph

Search for Another Location

Airport:

Trip Planner

Search our weather history database for the weather conditions in past years. The results will help you decide how hot, cold, wet, or windy it might be!

Date:

Astronomy

Jan. 30, 2013 Rise Set
Actual Time 5:49 AM SAST 7:37 PM SAST
Civil Twilight 5:22 AM SAST 8:04 PM SAST
Nautical Twilight 4:49 AM SAST 8:37 PM SAST
Astronomical Twilight 4:14 AM SAST 9:12 PM SAST
Moon 9:16 PM SAST (1/30) 8:53 AM SAST (1/30)
Length of Visible Light 14h 41m
Length of Day
13h 47m
Waning Gibbous, 89% of the Moon is Illuminated
Jan 30
Waning Gibbous
Feb 3
Last Quarter
Feb 10
New
Feb 17
First Quarter
Feb 25
Full

Hourly Weather History & Observations

Time (SAST) Temp. Dew Point Humidity Pressure Visibility Wind Dir Wind Speed Gust Speed Precip Events Conditions
12:00 AM 68.0 °F 64.4 °F 88% 29.86 in 6.2 mi NE 17.3 mph - N/A Rain Light Rain
1:00 AM 68.0 °F 64.4 °F 88% 29.83 in 6.2 mi SW 6.9 mph - N/A   Partly Cloudy
2:00 AM 68 °F 65 °F 87% 29.87 in 6 mi 2.3 mph - -  
2:00 AM 68.0 °F 66.2 °F 94% 29.89 in 5.6 mi Variable 2.3 mph - N/A   Overcast
3:00 AM 68.0 °F 66.2 °F 94% 29.86 in 3.7 mi NW 3.5 mph - N/A   Mostly Cloudy
4:00 AM 66.2 °F 64.4 °F 94% 29.86 in - Variable 2.3 mph - N/A   Mostly Cloudy
5:00 AM 67 °F 67 °F 100% 29.89 in 3 mi NW 6.9 mph - -   Mist
5:00 AM 68.0 °F 66.2 °F 94% 29.89 in 3.1 mi NW 4.6 mph - N/A   Mostly Cloudy
6:00 AM 66.2 °F 64.4 °F 94% 29.89 in 3.1 mi WSW 5.8 mph - N/A   Scattered Clouds
7:00 AM 68.0 °F 66.2 °F 94% 29.89 in 1.7 mi SW 10.4 mph - N/A   Mostly Cloudy
8:00 AM 70 °F 67 °F 86% 29.92 in 12 mi West 5.8 mph - -   Mostly Cloudy
8:00 AM 69.8 °F 66.2 °F 88% 29.92 in 6.2 mi West 5.8 mph - N/A   Scattered Clouds
9:00 AM 73.4 °F 66.2 °F 78% 29.92 in 6.2 mi West 8.1 mph - N/A   Scattered Clouds
10:00 AM 71.6 °F 66.2 °F 83% 29.92 in 6.2 mi South 10.4 mph - N/A   Mostly Cloudy
11:00 AM 74 °F 67 °F 73% 29.94 in 12 mi South 9.2 mph - -   Mostly Cloudy
11:00 AM 75.2 °F 68.0 °F 78% 29.92 in 6.2 mi South 9.2 mph - N/A   Mostly Cloudy
12:00 PM 73.4 °F 66.2 °F 78% 29.95 in 6.2 mi SSW 9.2 mph - N/A   Mostly Cloudy
1:00 PM 75.2 °F 68.0 °F 78% 29.95 in 6.2 mi SSW 9.2 mph - N/A   Scattered Clouds
2:00 PM 74 °F 67 °F 73% 29.94 in 12 mi SSW 13.8 mph - -   Mostly Cloudy
2:00 PM 73.4 °F 68.0 °F 83% 29.95 in 6.2 mi SSW 12.7 mph - N/A   Mostly Cloudy
3:00 PM 73.4 °F 66.2 °F 78% 29.98 in 6.2 mi SSW 9.2 mph - N/A   Mostly Cloudy
4:00 PM 73.4 °F 68.0 °F 83% 29.98 in 6.2 mi SSW 8.1 mph - N/A   Mostly Cloudy
5:00 PM 70 °F 67 °F 87% 29.98 in 3 mi South 9.2 mph - - Rain Light Rain
5:00 PM 69.8 °F 66.2 °F 88% 29.98 in 3.1 mi SSE 9.2 mph - N/A Rain Light Rain
6:00 PM 71.6 °F 68.0 °F 88% 30.01 in 1.9 mi South 11.5 mph - N/A   Overcast
7:00 PM 69.8 °F 68.0 °F 94% 30.01 in 3.1 mi South 8.1 mph - N/A   Overcast
8:00 PM 70 °F 67 °F 89% 30.03 in 3 mi South 13.8 mph - -   Partly Cloudy
8:00 PM 69.8 °F 68.0 °F 94% 30.04 in 3.1 mi South 13.8 mph - N/A   Overcast
9:00 PM 68.0 °F 66.2 °F 94% 30.04 in 5.0 mi South 8.1 mph - N/A   Overcast
10:00 PM 68.0 °F 66.2 °F 94% 30.06 in 6.2 mi South 9.2 mph - N/A Rain Light Rain
11:00 PM 68.0 °F 66.2 °F 94% 30.06 in 6.2 mi SW 4.6 mph - N/A   Overcast